This is the latest recevied weather packets stored in our database for station/object K6GMW. If no packets are shown the sender has not sent any weather packets the latest 10 day(s).
| Time | Temp. | Humidity | Pressure | Rain* | Wind** | Luminosity | Snow |
|---|---|---|---|---|---|---|---|
| 1778073857 | 15.56° C | 84% | 1013.2 hPa | 0 mm | - | 81 W/m² | - |
| 1778073555 | 15.56° C | 85% | 1013 hPa | 0 mm | - | 66 W/m² | - |
| 1778073251 | 15.56° C | 85% | 1013.4 hPa | 0 mm | - | 59 W/m² | - |
| 1778072948 | 15.56° C | 85% | 1013.2 hPa | 0 mm | - | 51 W/m² | - |
| 1778072644 | 15.56° C | 85% | 1013 hPa | 0 mm | - | 42 W/m² | - |
| 1778072342 | 15.56° C | 85% | 1012.9 hPa | 0 mm | - | 38 W/m² | - |
| 1778072041 | 15.56° C | 85% | 1013 hPa | 0 mm | - | 54 W/m² | - |
| 1778071738 | 15.56° C | 86% | 1012.9 hPa | 0 mm | - | 41 W/m² | - |
| 1778071435 | 15.56° C | 86% | 1012.5 hPa | 0 mm | - | 51 W/m² | - |
| 1778071133 | 15.56° C | 86% | 1012.5 hPa | 0 mm | - | 32 W/m² | - |
| 1778070831 | 16.11° C | 86% | 1012.4 hPa | 0 mm | - | 41 W/m² | - |
| 1778070528 | 16.11° C | 86% | 1012.5 hPa | 0 mm | - | 34 W/m² | - |
| 1778070225 | 16.11° C | 85% | 1012 hPa | 0 mm | - | 30 W/m² | - |
| 1778069923 | 16.11° C | 86% | 1012.2 hPa | 0 mm | - | 19 W/m² | - |
| 1778069620 | 16.11° C | 86% | 1011.9 hPa | 0 mm | - | 22 W/m² | - |
| 1778069317 | 16.11° C | 85% | 1012 hPa | 0 mm | - | 22 W/m² | - |
| 1778069015 | 16.11° C | 85% | 1012 hPa | 0 mm | - | 20 W/m² | - |
| 1778068712 | 16.11° C | 84% | 1011.8 hPa | 6.1 mm | - | 17 W/m² | - |
| 1778068410 | 16.11° C | 84% | 1011.7 hPa | 6.1 mm | - | 14 W/m² | - |
| 1778068108 | 16.11° C | 84% | 1011.6 hPa | 0 mm | - | 10 W/m² | - |
| 1778067805 | 16.11° C | 84% | 1011.8 hPa | 0 mm | - | 7 W/m² | - |
| 1778067504 | 16.11° C | 84% | 1011.5 hPa | 0 mm | - | 3 W/m² | - |
| 1778067201 | 16.67° C | 84% | 1011.4 hPa | 0 mm | - | 2 W/m² | - |
| 1778066897 | 16.67° C | 84% | 1011.1 hPa | 0 mm | - | 1 W/m² | - |
| 1778066595 | 16.67° C | 84% | 1011.2 hPa | 0 mm | - | 1 W/m² | - |
* Rain latest hour (hover to see other rain measurements)
** Current wind speed in m/s (hover to see current wind gust speed)